Regional Weather Roundup
Issued by NWS Albany, NY

Current Version | Previous Version | Text Only | Print | Product List | Glossary Off
Versions: 1 2 3 4 5 6 7 8 9 10 11 12 13 14 15 16 17 18 19 20 21 22 23 24 25 26 27 28 29 30 31 32 33 34 35 36 37 38 39 40 41 42 43 44 45 46 47 48 49 50

750
ASUS41 KALY 130310
RWRALY

NEW YORK STATE HOURLY WEATHER ROUNDUP
NATIONAL WEATHER SERVICE ALBANY NY
1000 PM EST TUE NOV 12 2019

NOTE: "FAIR" INDICATES FEW OR NO CLOUDS BELOW 12,000 FEET WITH NO
SIGNIFICANT WEATHER AND/OR NO OBSTRUCTIONS TO VISIBILITY.

NYZ032-033-038>043-046>054-057>066-NYZ062>081-082-084-130400-
EAST


CITY           SKY/WX    TMP DP  RH WIND       PRES   REMARKS
ALBANY         FAIR      21   8  57 NW18      30.11R WCI   6
GLENS FALLS    CLOUDY    18   6  59 NW6       30.09R WCI  10
POUGHKEEPSIE   FAIR      24   5  44 W9        30.12R WCI  14
MONTGOMERY     FAIR      21   6  52 NW7       30.13R WCI  12
WHITE PLAINS   FAIR      24   4  42 NW14G21   30.10R WCI  12
ISLIP          FAIR      28   5  37 NW17G25   30.10R WCI  16
NEW YORK CITY  FAIR      29  12  49 NW21G30   30.15R WCI  16
CENTRAL PARK   FAIR      27   3  35 W13G25    30.17R WCI  16
$$

NYZ005>009-017-018-044>046-055-056-130400-
CENTRAL


CITY           SKY/WX    TMP DP  RH WIND       PRES   REMARKS
FULTON         CLOUDY    22   5  48 N12G23    30.17R WCI  10
SYRACUSE       LGT SNOW  21  13  71 NW18G25   30.17R WCI   6
ROME           FAIR      15  10  80 NW9       30.15R WCI   3
ELMIRA         FAIR      19   9  65 W6        30.19S WCI  11
BINGHAMTON     FAIR      13   5  70 W12       30.08S WCI  -1
MONTICELLO     FAIR      16   7  67 W10G22    30.08R WCI   4
$$

NYZ026>034-041>043-087-130400-
NORTH


CITY           SKY/WX    TMP DP  RH WIND       PRES   REMARKS
WATERTOWN      FAIR      13   2  61 NW9       30.17R WCI   1
FORT DRUM      NOT AVBL
OGDENSBURG     FAIR      10   3  72 W9        30.13S WCI  -2
MASSENA        FAIR      12   3  67 W13       30.13S WCI  -3
SARANAC LAKE   CLOUDY     7   0  73 VRB7G17   29.96S WCI  -5
PLATTSBURGH    FAIR      14   0  53 NW7G17    30.06R WCI   4
$$

NYZ001>004-010>016-019>021-085-130400-
WEST


CITY           SKY/WX    TMP DP  RH WIND       PRES   REMARKS
NIAGARA FALLS  FLURRIES  18  10  71 W15       30.24S WCI   4
BUFFALO        FAIR      17   9  70 W8        30.23S WCI   7
DUNKIRK        MOCLDY    24  10  55 NW14G24   30.26S WCI  12
JAMESTOWN      LGT SNOW  17  14  88 NW12      30.18S FOG     WCI   4
WELLSVILLE     FAIR      10   6  84 W10       30.14R WCI  -4
ROCHESTER      FLURRIES  18   6  59 W10       30.21S WCI   6
PENN YAN       FAIR      19   6  57 W12       30.17S WCI   7
$$

             KEY
       WCI = WIND CHILL INDEX
       VSB = VISIBILITY
       HX  = HEAT INDEX
$$




USA.gov is the U.S. government's official web portal to all federal, state and local government web resources and services.